[[{"header":{"parameterUnit":"m.s-1","parameterCategory":1,"la1":30.2991,"la2":30.254,"lo1":-89.0895,"lo2":-89.0444,"dy":0.0017,"dx":0.0017,"nx":28,"ny":28,"refTime":"2025-07-15T21:00:00:Z","depth":0,"parameterNumber":2,"parameterNumberName":"U-component_of_WINDS"},"data":[0,0,0,0,0,0,0,0,0,0,0,0,0,0,0,0,0,0,0,0,0,0,0,0,0,0,0,0,0,0,0,0,0,0,0,0,0,0,0,0,0,0,0,0,0,0,0,0,0,0,0,0,0,0,0,0,0,0,-1.3086,-1.3087,0,-1.3151,-1.3152,-1.3152,-1.3161,-1.3161,-1.316,-1.316,-1.3227,-1.3229,-1.3231,0,0,0,0,0,0,0,0,0,0,0,0,0,-1.2972,-1.2974,-1.3086,-1.3087,-1.3088,-1.3151,-1.3152,-1.3152,-1.3162,-1.3161,-1.316,-1.3159,-1.3226,-1.3229,-1.3231,0,0,0,0,0,0,0,0,0,0,0,0,0,-1.3028,-1.2975,-1.3086,-1.31,-1.3102,-1.3151,-1.3152,-1.3153,-1.3162,-1.3161,-1.316,-1.3159,-1.3225,-1.3228,-1.3232,-1.3272,0,0,-1.3243,-1.3244,0,0,0,0,0,0,0,0,-1.3025,-1.3032,-1.3097,-1.3099,-1.3101,-1.3147,-1.3136,-1.3193,-1.3162,-1.3139,-1.316,-1.3159,-1.3201,-1.3206,-1.3221,-1.3275,-1.3278,-1.3243,-1.3245,-1.3246,-1.3247,0,0,0,0,0,0,0,-1.3021,-1.3029,-1.3112,-1.3098,-1.31,-1.3104,-1.311,-1.3147,-1.3174,-1.3141,-1.3142,-1.3149,-1.3202,-1.3217,-1.3222,-1.3278,-1.3243,-1.3246,-1.3248,-1.3249,-1.337,-1.3371,0,0,0,0,0,0,-1.3014,-1.3026,-1.311,-1.3114,-1.306,-1.3106,-1.3114,-1.3133,-1.3174,-1.3179,-1.315,-1.3149,-1.3212,-1.3218,-1.3225,-1.3274,-1.3246,-1.325,-1.3252,-1.3369,-1.337,-1.3372,0,0,0,0,0,0,-1.3012,-1.3022,-1.3107,-1.307,-1.3081,-1.3109,-1.3131,-1.3135,-1.315,-1.3181,-1.3186,-1.316,-1.3211,-1.322,-1.326,-1.3277,-1.3251,-1.3255,-1.3368,-1.337,-1.3371,-1.3373,0,0,0,0,0,0,-1.3008,-1.3021,-1.3035,-1.307,-1.3083,-1.3141,-1.3132,-1.3137,-1.3156,-1.3156,-1.3192,-1.3197,-1.3211,-1.3255,-1.3264,-1.3281,-1.3257,-1.3366,-1.3369,-1.3371,-1.3372,-1.3375,-1.3378,0,0,0,0,0,-1.3004,-1.3033,-1.3036,-1.3046,-1.3102,-1.3142,-1.3149,-1.3165,-1.3157,-1.3173,-1.3193,-1.3196,-1.3274,-1.3259,-1.3269,-1.3288,-1.3365,-1.3368,-1.337,-1.3371,-1.3374,-1.3377,0,0,0,0,0,0,-1.2999,-1.3038,-1.3041,-1.3082,-1.3109,-1.3143,-1.3163,-1.3168,-1.3197,-1.3195,-1.3214,-1.3222,-1.3262,-1.3279,-1.3262,-1.3329,-1.3319,-1.3324,-1.3316,-1.332,-1.3322,-1.3317,-1.326,0,0,0,0,0,-1.3003,-1.3031,-1.3064,-1.3097,-1.311,-1.3134,-1.3152,-1.3162,-1.319,-1.3201,-1.3224,-1.3252,-1.3283,-1.3302,-1.3332,-1.3375,-1.3383,-1.3393,-1.3396,-1.3398,-1.3401,-1.3426,-1.3431,-1.338,-1.338,-1.338,0,0,-1.301,-1.3035,-1.3052,-1.3096,-1.3118,-1.3148,-1.3143,-1.3175,-1.3197,-1.3206,-1.3245,-1.3264,-1.3296,-1.3338,-1.3358,-1.3353,-1.3418,-1.3401,-1.3403,-1.3405,-1.3429,-1.3434,-1.3439,-1.3381,-1.3381,-1.3381,0,0,-1.3039,-1.306,-1.3091,-1.3113,-1.3146,-1.3162,-1.317,-1.3204,-1.3216,-1.3256,-1.3264,-1.3292,-1.3344,-1.3367,-1.3386,-1.3426,-1.343,-1.3435,-1.3449,-1.3473,-1.3477,-1.3481,-1.3495,-1.35,-1.3439,-1.3439,-1.3439,0,-1.3044,-1.3088,-1.3106,-1.3137,-1.3157,-1.3167,-1.3199,-1.322,-1.3261,-1.3274,-1.3269,-1.3337,-1.3359,-1.3407,-1.3417,-1.3432,-1.3441,-1.343,-1.3475,-1.3479,-1.3483,-1.3497,-1.3502,-1.3439,-1.3439,-1.3439,-1.3439,0,-1.3093,-1.3124,-1.3145,-1.3185,-1.3207,-1.3238,-1.3261,-1.3282,-1.3291,-1.3308,-1.335,-1.3378,-1.3414,-1.3427,-1.3435,-1.3476,-1.3473,-1.3471,-1.3462,-1.3488,-1.3501,-1.3507,-1.344,-1.344,-1.344,-1.344,0,0,-1.3118,-1.3168,-1.3176,-1.3194,-1.3233,-1.3257,-1.329,-1.3326,-1.3344,-1.3373,-1.3401,-1.3446,-1.3446,-1.3467,-1.3479,-1.35,-1.3531,-1.3496,-1.3497,-1.3501,-1.3578,-1.3578,-1.3584,-1.3534,-1.3535,-1.3536,-1.3575,0,-1.3151,-1.3208,-1.3226,-1.3274,-1.3304,-1.3316,-1.3344,-1.3371,-1.3389,-1.3417,-1.3437,-1.3469,-1.3466,-1.3479,-1.3501,-1.3522,-1.3546,-1.352,-1.356,-1.3562,-1.3551,-1.3591,-1.3591,-1.3626,-1.3581,-1.3581,-1.3582,0,-1.3196,-1.3226,-1.3277,-1.3314,-1.3327,-1.3352,-1.3387,-1.3414,-1.3445,-1.3457,-1.3482,-1.3492,-1.3528,-1.3517,-1.3567,-1.3549,-1.3567,-1.358,-1.3582,-1.3585,-1.3572,-1.3595,-1.3638,-1.3642,-1.3591,-1.359,-1.3589,0,-1.3208,-1.3262,-1.33,-1.3316,-1.3359,-1.3377,-1.3395,-1.3426,-1.3447,-1.3479,-1.3492,-1.3527,-1.3546,-1.3573,-1.3594,-1.3584,-1.3642,-1.3633,-1.3652,-1.3652,-1.3662,-1.3661,-1.3708,-1.3676,-1.3676,-1.3676,-1.3675,0,-1.3242,-1.3273,-1.3306,-1.3329,-1.3365,-1.3386,-1.3421,-1.3441,-1.3469,-1.3497,-1.351,-1.3536,-1.3561,-1.3591,-1.3607,-1.3646,-1.3655,-1.3665,-1.3669,-1.3663,-1.3662,-1.3674,-1.3672,-1.3677,-1.3677,-1.3676,-1.3676,0,-1.3262,-1.3285,-1.3327,-1.3365,-1.3376,-1.34,-1.3433,-1.3457,-1.3476,-1.3511,-1.3521,-1.3551,-1.3587,-1.361,-1.3656,-1.3667,-1.3709,-1.3713,-1.3698,-1.37,-1.3718,-1.3716,-1.3773,-1.3782,-1.3745,-1.3745,-1.3745,0,-1.3281,-1.3305,-1.3347,-1.3366,-1.3385,-1.3417,-1.3439,-1.3461,-1.3483,-1.3523,-1.3542,-1.3579,-1.3609,-1.3666,-1.3692,-1.3728,-1.3732,-1.375,-1.3737,-1.3731,-1.3732,-1.3729,-1.3732,-1.3751,-1.3752,-1.3752,-1.3752,0,-1.3314,-1.3324,-1.3355,-1.3391,-1.3416,-1.3445,-1.3474,-1.349,-1.3517,-1.3542,-1.3579,-1.3603,-1.365,-1.3687,-1.3725,-1.3745,-1.3753,-1.3756,-1.3763,-1.3756,-1.3747,-1.3752,-1.3703,-1.3754,-1.3754,-1.3754,-1.3754,-1.3754,-1.3333,-1.3356,-1.3389,-1.3423,-1.3447,-1.3475,-1.3499,-1.3522,-1.3553,-1.3593,-1.3605,-1.3644,-1.3677,-1.3729,-1.375,-1.3781,-1.3779,-1.3788,-1.3791,-1.3792,-1.3792,-1.3743,-1.3789,-1.3789,-1.3789,-1.3789,-1.3789,0,-1.3366,-1.3388,-1.342,-1.346,-1.3488,-1.3494,-1.3527,-1.3549,-1.3583,-1.3613,-1.3644,-1.3687,-1.3723,-1.3753,-1.379,-1.381,-1.3814,-1.3819,-1.3817,-1.3822,-1.3792,-1.3783,-1.3814,-1.3814,-1.3814,-1.3814,-1.3814,-1.3814,-1.3386,-1.3425,-1.344,-1.3492,-1.3514,-1.3552,-1.357,-1.3596,-1.362,-1.3668,-1.3698,-1.3718,-1.3748,-1.3788,-1.3822,-1.383,-1.3843,-1.3846,-1.3855,-1.3826,-1.3824,-1.3821,-1.3812,-1.3849,-1.3849,-1.3882,-1.3882,-1.3882]},{"header":{"parameterUnit":"m.s-1","parameterCategory":1,"la1":30.2991,"la2":30.254,"lo1":-89.0895,"lo2":-89.0444,"dy":0.0017,"dx":0.0017,"nx":28,"ny":28,"refTime":"2025-07-15T21:00:00:Z","depth":0,"parameterNumber":3,"parameterNumberName":"V-component_of_WINDS"},"data":[0,0,0,0,0,0,0,0,0,0,0,0,0,0,0,0,0,0,0,0,0,0,0,0,0,0,0,0,0,0,0,0,0,0,0,0,0,0,0,0,0,0,0,0,0,0,0,0,0,0,0,0,0,0,0,0,0,0,2.8076,2.8077,0,2.8125,2.8125,2.8126,2.8124,2.8123,2.8123,2.8122,2.8167,2.8169,2.8171,0,0,0,0,0,0,0,0,0,0,0,0,0,2.7976,2.7978,2.8076,2.8077,2.8078,2.8125,2.8125,2.8126,2.8124,2.8123,2.8122,2.8122,2.8166,2.8169,2.8171,0,0,0,0,0,0,0,0,0,0,0,0,0,2.8022,2.7979,2.8076,2.8082,2.8083,2.8125,2.8125,2.8126,2.8124,2.8123,2.8122,2.8121,2.8166,2.8168,2.8171,2.8208,0,0,2.8179,2.8181,0,0,0,0,0,0,0,0,2.8019,2.8025,2.8081,2.8082,2.8083,2.8117,2.8107,2.8153,2.8124,2.8109,2.8122,2.8121,2.8151,2.8155,2.8166,2.821,2.8212,2.818,2.8181,2.8182,2.8183,0,0,0,0,0,0,0,2.8016,2.8023,2.8095,2.8082,2.8083,2.8081,2.8086,2.8115,2.8135,2.811,2.811,2.8116,2.8151,2.8163,2.8167,2.8213,2.818,2.8182,2.8184,2.8185,2.8286,2.8287,0,0,0,0,0,0,2.8012,2.8021,2.8094,2.8097,2.8048,2.8083,2.8089,2.8107,2.8134,2.8138,2.8117,2.8116,2.8159,2.8164,2.8169,2.8212,2.8182,2.8185,2.8187,2.8285,2.8287,2.8288,0,0,0,0,0,0,2.801,2.8019,2.8092,2.8059,2.8068,2.8086,2.8106,2.8109,2.8121,2.814,2.8142,2.8126,2.8159,2.8165,2.8198,2.8213,2.8186,2.8189,2.8284,2.8286,2.8287,2.8299,0,0,0,0,0,0,2.8007,2.8018,2.8034,2.8059,2.807,2.8122,2.8107,2.811,2.8126,2.8125,2.8149,2.8152,2.8158,2.8194,2.8201,2.8216,2.8191,2.8283,2.8285,2.8287,2.8297,2.8301,2.8304,0,0,0,0,0,2.8004,2.8035,2.8035,2.8043,2.809,2.8123,2.8129,2.8137,2.8127,2.8142,2.8154,2.8151,2.8211,2.8197,2.8205,2.8222,2.8282,2.8284,2.8287,2.8296,2.83,2.8304,0,0,0,0,0,0,2.801,2.8038,2.8038,2.8079,2.8099,2.8123,2.8142,2.8142,2.8163,2.8161,2.8169,2.8175,2.8207,2.8218,2.8202,2.8258,2.8245,2.8249,2.8249,2.8254,2.8257,2.8253,2.8193,0,0,0,0,0,2.8016,2.8042,2.8065,2.8098,2.8108,2.8123,2.8138,2.8143,2.8163,2.8171,2.8185,2.8203,2.8226,2.824,2.8263,2.8299,2.8303,2.8315,2.8318,2.832,2.8323,2.8341,2.8346,2.8296,2.8296,2.8296,0,0,2.8029,2.8047,2.8063,2.81,2.8116,2.814,2.813,2.8158,2.8175,2.8174,2.8206,2.8217,2.8238,2.8272,2.8288,2.8282,2.8338,2.8323,2.8325,2.8327,2.8344,2.8349,2.8353,2.8297,2.8297,2.8297,0,0,2.8064,2.8082,2.8111,2.8127,2.8151,2.8161,2.8167,2.8191,2.8199,2.8231,2.823,2.8251,2.829,2.8305,2.8317,2.8356,2.8353,2.8363,2.8379,2.8397,2.84,2.8404,2.8416,2.842,2.8366,2.8366,2.8366,0,2.8076,2.8115,2.8125,2.8152,2.8167,2.8169,2.8196,2.8211,2.8241,2.825,2.8243,2.8292,2.8306,2.8343,2.8352,2.8363,2.8369,2.836,2.8399,2.8403,2.8406,2.8418,2.8422,2.8367,2.8367,2.8367,2.8367,0,2.8128,2.8155,2.8175,2.8204,2.8221,2.8249,2.8261,2.8277,2.8279,2.8289,2.832,2.8338,2.8362,2.8371,2.8374,2.8408,2.8403,2.8398,2.8385,2.8412,2.8422,2.8427,2.8368,2.8368,2.8368,2.8367,0,0,2.8168,2.8202,2.8209,2.8222,2.8248,2.8268,2.8294,2.8319,2.8331,2.8352,2.8372,2.8405,2.84,2.8414,2.8418,2.8434,2.8461,2.8426,2.8427,2.843,2.8496,2.8499,2.8504,2.846,2.8461,2.8461,2.8494,0,2.8205,2.8253,2.8262,2.8303,2.8326,2.8327,2.8349,2.8367,2.8376,2.8396,2.8405,2.8428,2.8421,2.8429,2.8444,2.8454,2.8474,2.8452,2.8476,2.8477,2.847,2.851,2.8513,2.8542,2.8498,2.8499,2.8499,0,2.8254,2.8276,2.8319,2.8341,2.8351,2.8371,2.8393,2.8413,2.8432,2.8437,2.8452,2.8455,2.8479,2.8466,2.8499,2.8485,2.8495,2.8501,2.8503,2.8504,2.8489,2.851,2.8552,2.8556,2.8506,2.8506,2.8505,0,2.8276,2.8317,2.8347,2.8358,2.8384,2.8398,2.8409,2.8427,2.8441,2.846,2.8469,2.8491,2.8502,2.8518,2.8525,2.8515,2.8557,2.8545,2.856,2.856,2.8567,2.8567,2.861,2.8577,2.8577,2.8577,2.8577,0,2.8315,2.8341,2.8357,2.8376,2.8404,2.8413,2.8441,2.8451,2.8467,2.8486,2.8488,2.8506,2.8515,2.8534,2.8539,2.8564,2.857,2.8573,2.8574,2.8572,2.8572,2.8578,2.8576,2.8578,2.8578,2.8578,2.8578,0,2.8345,2.8357,2.839,2.8412,2.8418,2.8438,2.8455,2.8472,2.8482,2.8506,2.8512,2.8525,2.8547,2.8556,2.8582,2.8586,2.8614,2.8615,2.8608,2.8608,2.8622,2.862,2.867,2.8676,2.8641,2.8641,2.8641,0,2.8368,2.8388,2.8412,2.8425,2.8437,2.8459,2.8473,2.8482,2.8496,2.8519,2.8532,2.8554,2.8572,2.8606,2.8617,2.8637,2.8636,2.8653,2.8639,2.8636,2.8634,2.8632,2.8633,2.8655,2.8655,2.8655,2.8655,0,2.8407,2.8412,2.8433,2.8455,2.8472,2.849,2.8508,2.8518,2.853,2.8545,2.8568,2.8582,2.8609,2.8629,2.865,2.8659,2.8658,2.866,2.8664,2.8661,2.8656,2.8657,2.8613,2.8658,2.8658,2.8658,2.8658,2.8657,2.8433,2.845,2.8469,2.8491,2.8506,2.8521,2.8538,2.8549,2.8568,2.8592,2.8596,2.8619,2.8635,2.8662,2.8673,2.869,2.8686,2.8692,2.8694,2.8695,2.8695,2.8655,2.8694,2.8694,2.8694,2.8694,2.8694,0,2.847,2.8482,2.8503,2.8527,2.8545,2.8544,2.8563,2.8577,2.8598,2.8614,2.8631,2.8656,2.8676,2.8688,2.8708,2.8719,2.8719,2.8724,2.8722,2.8724,2.8698,2.8692,2.8723,2.8723,2.8723,2.8723,2.8723,2.8723,2.8491,2.8519,2.8526,2.856,2.8572,2.8596,2.8606,2.862,2.8632,2.866,2.8677,2.8686,2.87,2.872,2.8738,2.8741,2.8747,2.8752,2.8754,2.8729,2.8726,2.8723,2.8717,2.8753,2.8753,2.8778,2.8778,2.8778]}]]